User: anonymous   Login
Location: Unspecified
(0.0000°N, 0.0000°E)
Time: 05:44:20
(UTC+00:00)
Language:

Uribyol 2 - Orbit

View from above orbital plane
View from above orbital plane
View from above satellite
View from above satellite

Ground track
Ground track

The orbit data is extracted from the following two-line orbital elements,

1 22828U 93061F   18349.92078831  .00000001  00000-0  18054-4 0  9997
2 22828  98.8711 328.0360 0010614 129.5872 230.6249 14.30692736284119
Epoch (UTC): 15 December 2018 22:05:56
Eccentricity: 0.0010614
inclination: 98.8711°
perigee height: 782 km
apogee height: 797 km
right ascension of ascending node: 328.0360°
argument of perigee: 129.5872°
revolutions per day: 14.30692736
mean anomaly at epoch: 230.6249°
orbit number at epoch: 28411

The dashed part of the orbit path shows where the satellite is in the earth's shadow,  

DLR